Temperature
23 23 22 22 22 22 21 21 21 21 20 20 20 20 19 19 19 19 19 19 19 19 19 19 19 19 18 18 18 18 18 18 18 18 19 19 19 19 19 19 19 19 19
23 23 22 22 22 22 22 21 21 21 21 20 20 20 19 19 19 19 19 19 19 19 19 19 19 18 18 18 18 18 18 18 18 18 18 18 19 19 19 19 18 18 18
23 23 22 22 22 22 22 21 21 21 21 20 20 20 19 19 19 19 19 19 19 19 19 19 18 18 18 18 18 18 18 18 18 18 18 18 18 18 18 18 18 18 18
23 23 23 22 22 22 22 22 21 21 21 20 20 20 20 19 19 19 19 19 19 19 19 18 18 18 18 18 18 18 18 18 18 18 18 18 18 17 17 18 18 18 18
24 23 23 22 22 22 22 21 21 21 21 20 20 20 20 19 19 19 19 19 18 18 18 18 18 18 18 18 18 18 18 18 18 18 18 18 17 17 17 17 18 18 18
24 23 23 22 22 22 21 21 21 21 20 20 20 20 20 19 19 19 19 18 18 18 18 18 18 18 18 18 18 18 18 18 18 18 17 17 17 17 17 17 17 18 18
24 23 23 22 22 21 21 21 21 21 20 20 20 19 19 19 19 19 19 18 18 18 18 18 18 18 18 18 18 18 18 18 17 17 17 17 17 17 17 17 17 17 17
24 23 23 23 22 22 21 21 21 21 20 20 20 19 19 19 19 19 18 18 18 18 18 18 18 18 18 18 18 18 18 17 17 17 17 17 17 17 17 16 16 16 17
24 23 23 23 22 22 22 21 21 21 20 20 20 19 19 19 19 19 18 18 18 18 18 18 18 18 18 18 17 17 17 17 17 17 17 17 17 17 16 16 16 16 16
23 23 23 23 22 22 22 21 21 21 20 20 20 19 19 19 19 18 18 18 18 18 18 18 18 18 18 17 17 17 17 17 17 17 17 17 16 16 16 16 16 16 15
23 23 23 23 22 22 21 21 21 21 20 20 19 19 19 19 18 18 18 18 18 18 17 18 17 17 17 17 17 17 17 17 17 16 16 16 16 16 16 16 16 15 15
24 23 23 22 22 21 21 21 21 21 20 20 19 19 19 18 18 18 18 18 18 17 17 17 17 17 17 17 17 17 16 16 16 16 16 16 16 16 16 15 15 15 15
23 23 22 22 22 21 21 21 21 20 20 19 19 19 18 18 18 18 18 18 17 17 17 17 17 17 17 16 16 16 16 16 16 16 16 16 15 15 15 15 15 15 15
22 22 22 22 21 21 21 20 20 20 20 19 19 18 18 18 18 18 17 17 17 17 17 16 16 16 16 16 16 16 16 15 15 15 15 15 15 15 15 15 15 15 14
21 21 22 21 21 21 21 20 20 20 19 19 19 18 18 18 18 17 17 17 17 16 16 16 16 16 16 16 16 16 15 15 15 15 15 15 15 15 14 14 14 14 14
20 21 21 21 21 20 20 20 20 20 19 19 18 18 18 18 17 17 17 16 16 16 16 16 16 16 16 16 15 15 15 15 15 15 15 15 14 14 14 14 14 14 14
20 20 20 20 20 20 20 20 20 19 19 19 18 18 18 17 17 17 16 16 16 16 16 16 15 15 15 15 15 15 15 15 15 15 15 14 14 14 14 14 14 14 14
20 20 20 20 20 20 19 19 19 19 19 18 18 18 17 17 17 16 16 16 16 16 15 15 15 15 15 15 15 15 15 15 14 14 14 14 14 14 14 14 14 14 14
20 20 20 20 20 20 19 19 19 18 18 18 17 17 17 16 16 16 16 16 15 15 15 15 15 15 15 15 15 14 14 14 14 14 14 14 14 14 14 13 13 13 14
20 20 20 20 19 19 19 19 18 18 18 17 17 17 16 16 16 16 15 15 15 15 15 15 15 15 15 15 14 14 14 14 14 14 14 14 14 14 13 13 13 13 13
19 19 19 19 19 19 18 18 18 17 17 17 17 16 16 16 16 15 15 15 15 15 15 15 15 14 14 14 14 14 14 14 14 14 14 14 14 14 13 13 13 13 13
19 19 19 18 18 18 18 17 17 17 16 16 16 16 16 15 15 15 15 15 14 14 14 14 14 14 14 14 14 13 13 13 13 13 13 13 13 13 13 13 13 13 13
18 18 18 18 17 17 17 17 16 16 16 16 16 15 15 15 15 14 14 14 14 14 14 14 14 14 14 14 14 13 13 13 13 13 13 13 13 13 13 13 13 12 12
17 17 17 17 16 16 16 16 16 16 15 15 15 15 15 15 14 14 14 14 13 13 13 13 13 13 13 14 13 13 13 13 13 13 13 13 13 13 13 13 13 12 12
17 16 16 16 15 15 15 15 15 15 15 15 14 14 14 14 14 14 13 13 13 13 13 13 13 13 13 13 13 13 13 13 13 13 13 13 13 12 12 12 12 12 12
16 15 15 15 15 15 15 15 14 14 14 14 14 14 14 13 13 13 13 13 13 13 13 13 13 13 13 13 13 13 13 13 12 12 12 12 12 12 12 12 12 12 12
Wind_Speed
11 12 13 12 11 9 9 8 7 5 4 3 2 2 1 1 1 1 3 3 3 3 2 1 1 1 1 2 2 2 1 1 0 1 2 2 1 1 2 2 2 3 5
10 12 12 11 11 10 9 8 7 6 5 4 3 2 2 1 2 1 1 3 3 3 2 1 1 1 1 1 1 1 0 1 1 1 1 2 3 2 2 1 2 2 2
13 13 13 11 11 11 11 10 8 7 6 5 3 2 1 1 1 0 1 1 2 3 2 2 2 1 1 1 2 1 2 1 1 1 2 1 2 2 3 2 1 1 1
12 12 13 12 12 12 11 9 9 7 6 6 5 4 3 3 2 2 2 2 2 2 2 2 2 1 1 1 1 1 1 2 1 1 1 2 3 1 2 3 2 2 2
14 14 14 14 12 12 11 9 8 7 6 6 7 5 4 3 1 1 1 1 1 2 2 1 1 2 1 1 1 1 1 2 2 2 1 1 1 1 2 3 3 3 3
12 12 11 11 10 10 9 9 8 7 6 7 6 6 5 4 2 1 1 1 1 2 1 1 1 2 1 1 1 2 2 2 2 2 2 2 2 2 2 3 3 3 3
11 11 12 12 11 10 10 9 9 8 7 7 6 5 5 4 4 3 2 2 1 1 2 1 1 1 1 1 1 1 1 1 1 2 2 2 2 2 2 2 2 2 3
11 11 12 12 12 11 10 10 10 8 7 7 6 4 4 3 3 3 2 2 2 3 2 1 1 1 1 1 1 1 1 1 1 1 1 1 2 2 2 2 2 2 2
12 11 11 10 10 10 10 10 9 8 7 7 7 5 5 4 3 3 2 2 2 2 1 1 1 0 1 1 1 1 1 1 1 2 1 2 2 1 1 2 2 2 2
11 10 10 10 9 9 8 8 9 9 7 7 7 6 5 4 4 3 2 2 2 1 1 1 1 1 1 1 1 1 1 1 2 2 1 2 2 2 1 1 1 2 3
11 11 10 9 8 8 8 8 8 7 7 7 6 5 5 4 4 3 3 3 2 1 1 1 1 1 1 1 1 1 1 1 2 2 1 2 1 1 1 1 1 1 2
10 9 9 8 8 8 8 8 8 8 7 6 5 5 4 4 4 4 3 3 2 2 2 1 1 2 1 1 1 2 1 1 2 2 2 3 2 1 1 1 1 2 2
8 8 7 7 8 7 7 7 7 7 6 6 6 4 4 4 4 4 3 3 3 2 2 2 2 2 1 1 2 2 2 2 2 2 3 4 3 3 2 2 2 3 3
7 7 7 6 7 6 6 7 7 7 6 6 5 4 4 4 4 4 3 3 3 3 3 2 2 2 2 2 2 2 2 2 2 3 3 4 4 5 4 3 3 3 2
5 5 6 5 6 5 5 6 6 6 6 6 6 5 4 3 3 3 3 3 3 3 3 2 2 2 2 2 2 2 2 2 3 3 3 4 5 5 4 4 3 3 3
3 3 5 5 5 5 5 5 5 5 6 6 6 5 4 4 3 3 3 3 3 3 2 3 2 2 3 4 4 4 3 3 4 4 3 4 4 5 5 5 5 5 4
2 3 4 4 4 4 5 5 6 5 6 6 5 5 5 4 4 4 3 3 3 3 3 3 3 3 4 5 5 5 3 3 4 4 4 4 4 4 3 5 6 6 7
1 2 3 3 3 2 2 4 4 5 5 4 4 4 4 4 4 3 3 3 3 3 4 4 4 4 5 5 5 4 2 2 3 3 4 4 4 4 3 4 4 5 6
3 3 4 4 3 3 3 3 3 4 4 4 4 4 4 4 3 4 4 3 3 4 4 4 4 4 5 5 5 4 2 2 4 4 4 4 5 6 5 3 5 6 6
0 1 2 3 3 3 3 4 3 3 4 4 4 4 3 4 4 4 4 3 3 4 4 4 4 4 4 5 4 4 2 3 4 4 5 6 6 6 5 4 5 6 7
2 2 3 3 3 3 4 3 3 3 4 3 3 3 3 4 4 3 3 3 2 3 3 3 4 4 5 5 5 5 3 4 4 4 4 5 7 7 7 6 6 8 7
1 1 2 1 1 2 4 3 2 3 2 2 2 2 2 2 2 2 2 2 2 3 3 3 4 4 4 4 5 5 6 5 5 5 4 5 7 7 7 6 7 8 5
1 1 2 1 0 1 3 2 2 2 2 2 1 1 1 2 2 2 2 2 2 3 4 3 4 4 3 3 5 6 7 7 5 5 6 7 7 6 5 6 6 5 3
2 2 3 2 1 1 0 1 1 2 2 2 2 2 2 2 2 2 2 2 3 3 4 4 4 4 3 3 2 3 4 5 4 4 4 5 5 3 3 3 3 3 3
1 2 2 1 1 1 1 1 1 2 2 2 3 3 3 3 2 2 2 3 4 5 5 5 5 4 4 6 6 4 3 3 4 2 1 1 2 2 2 2 3 2 2
2 2 1 0 1 1 2 2 2 2 2 2 3 3 2 2 2 2 2 3 4 4 5 7 6 5 7 6 5 5 6 5 3 2 1 2 2 3 3 3 3 3 3
Wind_Direction
169 161 161 161 157 155 154 156 155 161 153 146 151 155 185 205 191 194 183 187 193 189 160 225 248 248 229 237 223 201 204 246 264 50 330 318 291 256 225 223 213 215 213
163 164 162 165 167 166 165 164 165 166 169 175 175 171 173 199 195 215 188 194 191 195 186 196 224 233 234 262 242 164 173 268 111 130 72 343 332 313 293 236 214 230 222
171 170 168 171 171 172 173 175 176 172 172 167 145 124 89 29 28 324 237 231 202 203 204 205 212 218 190 219 225 196 169 217 271 160 152 156 249 298 308 286 250 250 253
171 173 172 174 179 182 178 174 174 173 174 165 159 157 168 190 217 209 217 241 217 211 213 199 197 214 200 202 222 185 190 175 229 270 222 199 185 196 295 303 282 262 252
175 178 179 179 180 178 176 176 171 174 174 170 173 171 182 201 209 179 201 251 267 236 226 208 203 216 210 185 223 212 199 184 196 214 232 237 231 194 194 270 289 285 262
177 179 176 170 174 173 171 170 168 178 178 177 178 179 182 183 170 182 203 246 265 271 274 232 217 221 210 177 212 225 218 214 208 217 198 185 198 218 201 235 259 271 271
168 171 175 175 172 171 175 175 174 183 182 179 183 186 188 180 182 194 200 212 242 265 267 273 243 230 203 171 188 198 225 222 225 238 228 216 218 206 197 207 244 267 277
172 170 172 174 173 173 174 175 181 188 185 182 186 181 175 177 190 197 201 210 225 236 236 230 218 203 166 177 162 192 232 217 226 256 255 247 256 217 205 200 206 270 291
170 170 169 167 172 174 174 176 179 184 183 181 180 180 183 185 192 196 201 217 228 229 225 201 190 180 184 196 189 209 234 229 230 242 250 256 267 265 230 204 185 198 264
166 163 165 168 170 176 174 171 175 177 179 182 185 189 190 193 193 189 206 221 232 233 226 228 229 248 238 218 197 234 242 233 259 243 256 270 262 267 260 226 194 189 205
167 165 167 168 166 168 170 172 173 172 178 181 181 179 184 188 187 198 213 217 229 230 224 214 215 232 244 232 199 254 259 242 270 265 239 260 250 259 276 250 241 233 202
165 159 157 154 156 166 174 173 172 174 180 176 171 181 186 187 192 207 219 214 216 225 225 202 208 231 238 232 221 251 260 249 261 261 249 262 260 253 253 244 252 245 229
148 146 148 155 162 168 177 176 175 180 181 168 167 176 190 195 202 209 210 203 206 213 209 198 205 226 238 241 243 242 242 242 249 248 243 252 252 255 250 241 242 245 256
143 149 153 162 159 166 172 173 179 180 171 164 166 177 192 197 204 204 198 203 204 205 217 209 203 217 237 254 253 244 244 256 262 260 256 257 249 245 243 243 241 236 245
126 148 153 165 159 162 167 171 173 172 166 163 173 191 194 193 196 199 199 202 200 209 205 192 211 236 242 253 250 242 242 248 257 259 258 249 257 263 252 243 231 223 228
150 158 151 151 170 176 172 166 165 169 164 169 185 190 186 191 201 203 201 198 197 194 197 205 210 231 250 258 249 231 235 239 240 248 257 261 268 270 268 266 251 234 230
143 148 156 154 160 177 178 179 176 162 160 174 186 187 188 198 206 208 202 206 207 202 205 223 219 231 248 249 253 246 230 233 235 238 246 262 275 266 257 273 281 275 267
146 181 165 154 159 158 172 181 163 158 163 177 188 191 194 206 207 200 210 221 215 213 220 226 232 238 251 249 255 255 238 242 252 250 239 240 264 261 248 256 276 278 276
180 191 194 184 170 159 155 154 162 160 163 178 184 196 198 205 209 211 221 227 225 229 230 228 228 237 254 252 246 233 232 241 257 261 255 244 248 261 252 245 264 279 282
178 151 160 156 159 166 151 142 163 169 183 192 194 196 190 194 203 214 225 233 228 235 235 240 238 237 244 250 237 218 218 245 257 265 264 257 252 256 248 238 245 262 272
144 141 143 165 183 170 148 144 173 202 209 197 190 195 199 201 205 206 215 231 242 255 250 250 254 245 240 244 236 221 216 236 250 257 263 265 263 259 255 242 239 250 259
93 117 135 160 173 151 147 154 200 212 186 167 174 196 213 223 216 200 229 238 230 250 260 259 267 261 252 238 234 229 232 234 236 248 253 262 266 265 261 251 255 262 265
77 98 133 127 358 163 155 172 228 189 155 157 190 210 208 244 220 205 226 251 248 246 255 251 254 263 262 247 238 234 240 243 241 253 259 269 272 267 265 265 266 264 246
101 101 100 95 352 330 127 177 211 173 148 183 222 222 206 241 251 239 227 231 236 240 246 245 247 255 262 256 252 247 251 257 260 272 284 285 275 268 270 286 277 248 231
100 97 104 130 321 334 290 257 222 177 188 228 229 230 222 224 240 247 245 242 244 234 234 239 231 228 246 251 232 223 237 235 240 249 298 331 323 307 298 292 278 261 253
104 100 99 231 265 229 270 271 242 201 199 241 249 241 230 228 223 231 302 308 275 269 249 241 235 236 232 236 237 246 249 238 212 164 213 262 264 267 276 276 279 267 255
Height
1517 1519 1522 1524 1526 1528 1529 1531 1532 1533 1535 1536 1536 1537 1537 1537 1537 1537 1537 1537 1536 1536 1536 1535 1534 1534 1533 1533 1532 1532 1533 1533 1533 1534 1534 1534 1535 1535 1535 1535 1535 1535 1535
1516 1518 1520 1522 1524 1526 1528 1529 1531 1532 1533 1534 1535 1536 1537 1537 1537 1537 1536 1536 1536 1535 1535 1534 1533 1533 1532 1531 1531 1531 1531 1532 1532 1533 1532 1532 1534 1533 1533 1533 1533 1533 1533
1512 1515 1518 1520 1522 1524 1526 1528 1529 1530 1532 1533 1534 1535 1536 1536 1536 1536 1536 1536 1535 1535 1534 1533 1533 1532 1531 1530 1529 1529 1530 1530 1531 1532 1532 1532 1531 1531 1531 1531 1531 1530 1530
1511 1513 1515 1517 1520 1522 1524 1526 1527 1529 1530 1531 1533 1533 1534 1534 1534 1535 1535 1535 1534 1534 1533 1533 1532 1531 1530 1529 1529 1529 1529 1529 1529 1530 1530 1531 1531 1530 1529 1528 1528 1528 1528
1507 1510 1512 1514 1517 1520 1522 1524 1526 1527 1529 1530 1531 1532 1532 1533 1533 1534 1534 1534 1533 1533 1532 1531 1531 1530 1529 1529 1529 1528 1528 1528 1528 1528 1528 1528 1528 1528 1527 1526 1526 1525 1525
1506 1508 1510 1513 1515 1518 1520 1522 1523 1525 1527 1528 1529 1530 1530 1531 1532 1532 1532 1532 1532 1531 1531 1530 1529 1529 1528 1527 1527 1527 1527 1526 1526 1526 1526 1526 1525 1525 1525 1524 1523 1522 1522
1504 1506 1508 1510 1512 1515 1518 1519 1521 1523 1524 1526 1527 1528 1529 1529 1530 1530 1530 1530 1530 1530 1529 1529 1528 1527 1527 1526 1525 1525 1524 1524 1523 1523 1523 1523 1523 1523 1523 1522 1520 1520 1519
1501 1503 1505 1507 1510 1512 1515 1517 1518 1520 1522 1523 1525 1526 1527 1528 1528 1528 1528 1528 1528 1528 1527 1527 1526 1526 1525 1524 1524 1523 1522 1522 1521 1521 1520 1520 1520 1520 1520 1520 1519 1517 1516
1498 1501 1504 1506 1508 1511 1512 1514 1516 1518 1519 1521 1522 1523 1524 1525 1526 1526 1527 1526 1526 1526 1526 1525 1525 1524 1523 1522 1521 1520 1520 1519 1518 1518 1517 1517 1517 1517 1517 1517 1517 1517 1515
1496 1499 1502 1504 1506 1509 1511 1513 1514 1515 1517 1519 1520 1521 1522 1523 1524 1524 1524 1524 1524 1524 1524 1523 1523 1522 1521 1520 1519 1518 1517 1517 1516 1515 1515 1514 1514 1514 1513 1513 1514 1513 1513
1494 1496 1499 1502 1505 1507 1509 1511 1512 1513 1515 1516 1518 1519 1520 1521 1521 1522 1522 1522 1522 1521 1521 1521 1520 1519 1518 1517 1516 1515 1515 1514 1513 1513 1512 1512 1511 1511 1510 1511 1511 1510 1510
1492 1495 1498 1500 1503 1505 1507 1508 1509 1510 1512 1514 1515 1517 1518 1518 1518 1519 1519 1519 1519 1519 1519 1518 1517 1517 1516 1515 1513 1513 1512 1511 1511 1510 1510 1509 1509 1508 1508 1507 1507 1507 1506
1492 1495 1497 1499 1500 1502 1504 1505 1507 1508 1510 1511 1513 1514 1515 1516 1516 1516 1516 1516 1516 1516 1516 1515 1515 1514 1513 1512 1511 1510 1510 1509 1508 1508 1507 1507 1506 1505 1504 1504 1504 1504 1503
1492 1493 1496 1497 1498 1499 1501 1503 1504 1506 1507 1509 1510 1511 1512 1513 1513 1514 1513 1514 1514 1513 1513 1512 1512 1511 1511 1509 1508 1508 1507 1506 1506 1505 1504 1503 1503 1502 1502 1501 1500 1500 1500
1492 1492 1493 1495 1496 1498 1499 1501 1502 1503 1505 1506 1507 1509 1510 1510 1510 1511 1510 1511 1511 1510 1509 1509 1509 1508 1508 1507 1506 1505 1504 1504 1503 1502 1501 1501 1501 1500 1499 1498 1497 1497 1496
1491 1491 1491 1493 1495 1497 1497 1498 1500 1501 1503 1504 1505 1506 1507 1507 1507 1507 1507 1507 1507 1506 1506 1506 1506 1505 1504 1503 1503 1502 1501 1501 1500 1499 1498 1498 1497 1496 1496 1495 1494 1494 1493
1491 1491 1491 1492 1494 1496 1496 1497 1498 1499 1500 1501 1503 1503 1504 1504 1504 1504 1504 1503 1503 1503 1503 1502 1502 1501 1501 1500 1500 1499 1498 1498 1496 1496 1495 1494 1493 1492 1492 1491 1491 1490 1489
1491 1491 1492 1492 1492 1494 1495 1496 1497 1497 1498 1499 1500 1501 1501 1501 1501 1501 1500 1500 1500 1500 1499 1499 1498 1498 1497 1497 1496 1496 1495 1494 1493 1492 1491 1490 1489 1489 1488 1487 1486 1485 1485
1489 1489 1490 1490 1491 1492 1493 1494 1494 1495 1496 1497 1497 1498 1498 1498 1498 1498 1497 1497 1497 1496 1495 1495 1494 1493 1493 1493 1492 1492 1491 1490 1489 1488 1488 1487 1486 1485 1484 1483 1482 1481 1481
1488 1487 1488 1489 1489 1490 1491 1492 1492 1493 1493 1494 1494 1495 1495 1495 1495 1494 1494 1494 1493 1493 1492 1491 1491 1490 1489 1489 1489 1488 1487 1486 1485 1484 1484 1483 1482 1481 1480 1479 1478 1476 1476
1485 1486 1486 1486 1487 1488 1489 1489 1489 1490 1491 1492 1492 1492 1492 1491 1491 1491 1491 1490 1490 1489 1488 1487 1486 1486 1485 1485 1485 1484 1483 1482 1481 1480 1479 1478 1478 1477 1476 1475 1474 1473 1472
1484 1484 1484 1484 1484 1485 1486 1486 1486 1487 1488 1489 1488 1488 1488 1488 1487 1487 1487 1486 1486 1485 1485 1484 1483 1482 1481 1481 1480 1480 1479 1478 1477 1476 1475 1474 1474 1473 1472 1471 1470 1469 1469
1482 1483 1483 1483 1482 1483 1483 1483 1483 1484 1485 1485 1485 1484 1484 1484 1483 1483 1482 1482 1482 1481 1481 1480 1479 1478 1477 1477 1476 1476 1475 1474 1473 1472 1471 1470 1469 1468 1467 1467 1466 1465 1464
1480 1481 1481 1480 1480 1480 1480 1481 1481 1481 1481 1481 1481 1481 1480 1480 1480 1479 1479 1478 1478 1477 1477 1476 1475 1474 1473 1473 1472 1471 1470 1470 1469 1468 1467 1466 1465 1464 1463 1463 1462 1461 1460
1478 1478 1478 1478 1477 1478 1478 1478 1478 1478 1477 1477 1476 1476 1476 1476 1476 1476 1475 1475 1474 1474 1474 1473 1472 1471 1469 1469 1468 1467 1466 1465 1464 1463 1463 1462 1461 1460 1459 1459 1458 1457 1457
1476 1476 1476 1476 1475 1475 1474 1474 1474 1473 1473 1473 1472 1472 1472 1472 1472 1472 1471 1471 1471 1470 1469 1468 1468 1467 1466 1465 1464 1463 1462 1461 1461 1459 1458 1457 1457 1456 1455 1455 1454 1454 1453